Back to catalog

HULIANWANG DIGUI-174

AliveScienceLEO
NORAD 69577·PAYLOAD·🇨🇳 China

Launched Jun 17, 2026 from Wenchang Space Launch Site

Loading…

Next Passes (next 24 hours)

TLE

FreshSource: Space-Track

Epoch: Sep 14, 2026, 17:40 UTC

1 69577U 26137F   26257.73646912 -.00000097  00000-0  58617-4 0  9991
2 69577  50.0014 274.6185 0000223 330.8694  29.2166 13.29324888 12253

Track HULIANWANG DIGUI-174 in real time with AllMySat

Download on the App Store